Terminal Aerodrome Forecast
Issued by NWS Cleveland, OH

Home | Current Version | Previous Version | Graphics & Text | Print | Product List | Glossary On
Versions: 1 2 3 4 5 6 7 8 9 10 11 12 13 14 15 16 17 18
000
FTUS41 KCLE 172200 AAA
TAFMFD
TAF AMD
KMFD 172211Z 1722/1818 27010KT P6SM OVC015
     FM180200 27008KT P6SM -SHSN OVC015
     FM181200 27008KT P6SM OVC015=

USA.gov is the U.S. government's official web portal to all federal, state and local government web resources and services.